United States

Ashburn, VA Weather Archive

Below you will find the last 24 hours of weather readings for Ashburn VA

Ashburn VA Today's Weather Data

Observed at: Ashburn, VA

Hour Observerd Temp Pressure Visibility Humidity Dew Point Wind
15:00 Fair 84°F (28.9°C) 101.42 kPa 10 miles 44% 59.7°F (15.4°C) 2 mph NE 34°4 mph
14:00 Fair 82°F (27.8°C) 101.49 kPa 10 miles 46% 59.1°F (15.1°C) 2 mph NE 54°6 mph
13:00 Fair 81°F (27.2°C) 101.52 kPa 10 miles 46% 58.2°F (14.6°C) 1 mph NNW 340°4 mph
12:00 Fair 80°F (26.7°C) 101.59 kPa 10 miles 49% 59.1°F (15.1°C) 1 mph ENE 57°4 mph
11:00 Fair 78°F (25.6°C) 101.59 kPa 10 miles 50% 57.8°F (14.4°C) 1 mph NNE 26°5 mph
10:00 Fair 72°F (22.2°C) 101.59 kPa 10 miles 62% 58.2°F (14.6°C) 1 mph NNE 26°6 mph
09:00 Fair 68°F (20°C) 101.66 kPa 10 miles 72% 58.6°F (14.8°C) 1 mph NW 305°4 mph
08:00 Fair 67°F (19.4°C) 101.66 kPa 10 miles 85% 62.3°F (16.9°C) 1 mph NNE 19°3 mph
07:00 Partly Cloudy 66°F (18.9°C) 101.63 kPa 10 miles 100% 66°F (18.9°C) 1 mph NNW 336°4 mph
06:00 Mostly Cloudy 63°F (17.2°C) 101.59 kPa 10 miles 100% 63°F (17.2°C) 1 mph NE 45°2 mph
05:00 Mostly Cloudy 64°F (17.8°C) 101.59 kPa 10 miles 100% 64°F (17.8°C) 1 mph SE 135°
04:00 Fair 64°F (17.8°C) 101.49 kPa 10 miles 100% 64°F (17.8°C) 1 mph NNW 336°
03:00 Partly Cloudy 64°F (17.8°C) 101.42 kPa 10 miles 100% 64°F (17.8°C) 1 mph S 180°2 mph
02:00 Partly Cloudy 65°F (18.3°C) 101.42 kPa 10 miles 100% 65°F (18.3°C) 1 mph NE 45°2 mph
01:00 Mostly Cloudy 65°F (18.3°C) 101.42 kPa 10 miles 100% 65°F (18.3°C) 1 mph ESE 119°3 mph
00:00 Mostly Cloudy 66°F (18.9°C) 101.42 kPa 10 miles 98% 65.4°F (18.6°C) 1 mph ESE 117°3 mph
23:00 Overcast 73°F (22.8°C) 101.42 kPa 7 miles 83% 67.5°F (19.7°C) 2 mph NNE 28°9 mph
22:00 Overcast 77°F (25°C) 101.49 kPa 5 miles 86% 72.5°F (22.5°C) 1 mph SE 143°5 mph
21:00 Overcast 78°F (25.6°C) 101.49 kPa 5 miles 82% 72°F (22.2°C) 1 mph SE 124°2 mph
20:00 Fair 80°F (26.7°C) 101.32 kPa 10 miles 80% 73.3°F (22.9°C) 1 mph SE 128°4 mph
19:00 Fair 81°F (27.2°C) 101.32 kPa 10 miles 77% 73.1°F (22.8°C) 2 mph SE 137°5 mph
18:00 Fair 85°F (29.4°C) 101.32 kPa 10 miles 72% 74.9°F (23.9°C) 2 mph SE 140°7 mph
17:00 Partly Cloudy 86°F (30°C) 101.29 kPa 10 miles 69% 74.6°F (23.7°C) 2 mph SE 141°7 mph
16:00 Partly Cloudy 85°F (29.4°C) 101.29 kPa 10 miles 70% 74.1°F (23.4°C) 2 mph SSE 148°7 mph


Home | Earthquakes | About Us | Contact Us | Privacy

Copyright Friendly Forecast 2012 - 2020